Wind_Speed
2 3 5 6 6 6 6 6 7 7 7 6 6 6 5 5 4 4 4 4 4 4 4 4 3 3 3 3 4 4 4 4 4 4 4 4 4 4 4 5 5 5 6
3 3 4 5 6 6 6 7 7 7 7 7 6 6 5 5 4 4 3 3 3 4 4 3 3 3 3 3 3 3 3 3 4 4 3 3 4 4 4 4 5 5 6
3 4 5 6 7 7 8 8 7 8 7 7 7 7 6 5 5 4 3 3 3 3 3 3 3 3 3 3 2 2 3 3 4 3 3 3 4 4 4 4 4 5 6
4 4 5 6 7 8 8 8 8 8 8 8 7 7 6 5 4 3 3 3 3 3 3 2 2 2 3 2 2 2 2 3 3 3 3 3 4 4 4 4 4 5 6
4 5 6 7 7 8 9 9 8 8 8 8 7 7 6 5 4 3 3 3 3 3 2 2 2 2 2 2 2 2 2 3 2 2 2 3 4 3 3 4 4 5 5
4 5 6 7 8 9 9 10 10 9 10 9 8 7 6 5 4 3 3 3 3 2 2 2 2 2 2 2 2 2 2 3 3 2 2 3 3 3 3 3 4 4 4
4 5 6 7 8 9 10 10 10 10 10 9 8 7 6 5 4 4 4 3 2 2 2 1 2 2 2 2 2 1 2 2 2 2 2 2 2 3 3 3 3 4 4
5 5 6 7 7 8 9 10 10 11 11 9 8 7 6 5 4 4 3 3 2 2 2 2 2 2 2 2 2 2 2 1 2 2 2 2 2 2 3 3 3 3 3
6 6 7 7 8 8 9 10 11 11 11 10 9 8 7 6 5 4 4 3 2 2 2 2 2 2 2 2 1 1 1 1 2 2 2 2 2 2 2 2 3 3 3
8 7 7 7 8 9 10 10 12 12 12 11 10 9 8 7 6 5 4 4 3 2 2 2 2 2 2 1 1 1 1 1 2 2 2 2 2 2 2 2 2 3 3
9 8 7 8 8 9 10 11 12 12 12 11 10 9 9 8 6 5 5 4 3 3 2 2 2 2 2 1 1 1 1 2 2 2 2 2 2 2 2 2 2 3 3
10 9 8 9 8 9 10 10 11 12 12 11 11 10 9 8 7 6 5 4 4 3 3 2 2 2 1 1 0 0 1 2 2 2 2 2 2 2 3 3 3 3 3
12 11 9 9 9 9 10 10 11 12 12 12 11 10 9 8 7 6 5 4 4 3 3 2 2 2 1 1 1 1 1 1 2 1 2 2 2 2 3 3 3 3 3
14 13 11 9 9 9 10 10 12 12 13 12 11 11 10 8 7 6 5 5 4 4 3 3 2 2 2 2 1 1 2 2 2 2 2 2 2 2 3 3 3 3 4
16 15 12 11 11 10 10 10 11 12 12 11 10 11 9 8 7 6 5 5 4 3 3 2 2 2 1 1 2 2 2 2 1 1 2 2 2 3 3 3 3 3 4
18 16 14 12 11 10 11 10 10 11 12 11 10 11 10 9 7 6 5 5 4 3 3 3 2 2 1 2 2 2 2 2 1 0 1 2 2 2 3 4 3 3 3
17 15 12 10 10 10 11 11 10 10 12 11 11 11 10 9 8 7 6 5 4 3 3 3 2 2 1 2 2 2 1 1 1 0 0 0 1 2 3 3 4 4 4
17 13 10 9 8 8 9 10 10 11 11 12 11 12 10 10 9 8 7 6 4 4 3 3 2 1 1 1 1 1 1 1 1 1 1 0 0 1 2 3 4 3 4
15 11 8 7 7 7 8 8 10 11 11 11 12 12 12 11 10 9 8 7 5 4 4 4 3 2 1 1 0 0 1 1 1 1 1 0 1 0 1 2 3 3 3
13 9 7 6 7 8 8 8 9 10 10 11 12 12 13 12 11 10 9 8 7 6 5 4 3 3 2 1 0 0 0 1 1 1 1 1 1 1 1 0 1 2 3
11 8 6 5 5 6 8 8 10 10 10 11 12 12 13 12 11 11 10 9 8 7 6 5 5 4 3 2 1 1 1 1 0 0 1 1 1 1 1 1 1 2 3
10 8 6 3 4 5 7 8 10 11 10 11 11 12 13 12 12 12 10 9 9 8 7 7 6 5 5 4 3 3 2 2 1 1 1 1 1 2 2 3 3 3 4
9 7 5 3 3 5 6 8 9 10 10 10 11 12 12 12 13 13 12 10 9 9 8 8 8 7 6 6 5 4 4 3 3 2 2 2 2 2 3 3 4 4 5
8 6 5 4 3 4 5 6 8 9 10 11 10 11 11 12 13 12 12 11 10 10 9 9 9 9 8 7 6 6 6 5 4 4 4 4 4 4 5 5 5 6 6
7 6 5 3 3 3 3 5 8 9 10 10 10 11 12 13 13 13 13 12 11 11 10 10 10 10 10 9 8 8 8 7 7 6 6 6 6 7 7 7 8 8 8
6 5 5 4 3 2 3 4 6 8 9 10 10 11 12 12 13 14 14 14 13 12 12 12 11 12 11 11 11 10 10 10 9 9 9 9 9 9 10 10 11 11 11
Wind_Direction
201 195 203 201 194 189 191 193 189 186 191 192 190 186 178 169 157 144 136 128 118 112 107 104 104 100 104 119 116 112 111 109 108 108 108 110 108 103 104 101 102 100 104
237 222 218 211 202 199 203 204 203 200 200 204 202 202 196 185 174 162 146 136 128 121 113 110 113 107 110 120 121 121 114 111 115 112 113 115 115 105 107 109 110 105 107
249 232 227 221 212 208 210 214 215 211 211 213 211 209 204 193 181 172 157 143 133 127 119 110 111 109 117 125 125 126 125 120 124 124 122 121 119 111 108 109 116 115 112
261 242 233 229 221 217 217 221 222 218 219 219 219 216 209 199 187 178 164 149 139 133 123 119 117 121 131 134 134 131 137 136 130 126 123 126 123 116 110 111 125 124 115
268 252 242 236 229 226 228 229 230 226 225 225 225 222 216 211 204 195 177 161 150 137 126 129 133 133 133 136 142 138 137 145 151 142 127 128 133 127 117 114 125 132 123
283 265 254 247 239 235 236 234 236 232 228 227 228 226 223 222 217 205 189 176 162 152 141 135 139 140 141 147 154 154 147 151 155 146 137 138 139 139 131 128 132 135 129
292 277 265 255 245 241 239 237 239 237 230 227 229 230 228 228 227 217 201 190 181 174 161 146 146 146 154 165 176 171 156 152 150 155 150 149 143 140 142 140 144 143 136
293 281 275 259 248 244 240 240 241 237 233 229 230 233 231 230 228 223 214 205 197 184 177 167 158 162 167 178 184 166 157 159 163 174 169 164 156 144 146 152 156 155 148
307 294 281 261 252 246 245 241 239 236 232 230 230 233 235 234 233 227 222 218 198 184 179 171 161 166 170 169 178 189 176 175 186 169 165 170 170 168 166 169 175 169 166
314 297 285 266 255 250 247 242 237 233 231 230 231 233 237 237 234 230 229 223 202 190 176 163 158 161 162 176 203 216 199 176 171 173 168 173 172 182 191 192 194 191 182
321 308 292 275 260 253 248 244 241 233 231 232 234 234 235 236 234 234 232 224 207 194 173 168 168 164 164 185 230 210 189 170 155 177 176 181 177 186 197 199 202 201 197
321 310 296 279 265 256 250 249 245 236 234 233 234 233 233 234 233 233 228 220 211 200 179 174 175 162 162 200 200 172 181 181 166 164 187 199 197 201 204 204 209 209 209
320 311 295 279 267 259 250 249 241 236 238 237 233 232 230 231 230 228 229 215 207 203 189 180 175 167 177 185 181 164 168 183 169 190 206 209 201 206 205 208 217 217 225
320 311 299 283 275 258 249 249 244 236 239 240 229 229 230 227 224 221 221 213 210 206 201 189 180 175 189 191 159 158 154 182 188 207 223 218 218 218 216 221 229 233 234
317 311 302 288 279 264 250 247 244 233 233 234 230 223 222 219 218 221 225 217 219 215 210 204 190 184 184 167 154 154 156 174 154 216 241 235 236 231 229 229 239 240 235
317 310 304 291 282 264 249 244 241 230 228 225 227 224 218 215 218 221 223 224 225 218 213 204 191 188 164 145 150 147 138 137 136 265 252 240 242 243 237 234 230 234 239
318 311 304 289 282 266 249 243 232 227 222 219 222 223 218 214 217 223 228 226 226 222 213 206 190 174 165 146 140 147 150 138 135 153 203 286 239 234 237 237 234 242 248
319 312 301 290 280 259 241 235 226 224 220 218 220 219 218 214 222 227 227 228 231 226 213 205 195 175 168 152 146 158 154 114 114 129 129 61 10 244 242 237 233 239 251
322 314 297 289 271 252 237 233 229 223 219 218 218 217 218 218 222 224 222 226 228 221 217 212 213 199 185 151 145 149 128 114 103 109 114 44 15 329 253 234 229 237 249
326 316 296 281 264 261 243 234 228 221 220 217 215 216 217 216 218 220 220 223 224 221 220 219 217 209 203 197 201 177 131 105 95 90 71 59 52 51 41 294 240 249 262
329 321 301 286 278 260 243 233 223 221 220 215 214 214 213 215 218 220 220 222 223 226 227 223 220 221 220 218 225 229 244 247 263 54 47 42 23 11 3 344 297 292 296
328 320 304 297 280 265 240 231 221 219 219 213 213 213 215 218 219 217 220 225 227 233 232 231 230 228 223 226 231 232 242 253 265 283 324 339 342 341 336 328 313 301 305
328 323 319 300 294 278 241 229 221 222 216 216 217 216 215 218 217 219 224 227 228 233 235 235 232 230 230 235 239 243 245 246 256 270 296 307 319 325 319 314 308 302 302
327 320 310 294 286 282 243 229 224 223 221 219 219 216 216 216 217 221 224 226 229 234 236 235 233 233 236 240 245 249 252 256 261 270 278 289 302 306 307 305 303 302 298
323 318 311 303 287 277 244 226 225 223 224 224 223 222 220 219 222 225 227 229 229 232 234 235 234 235 238 242 247 250 253 260 265 268 273 281 289 293 294 295 297 299 298
317 316 306 298 286 266 240 227 226 229 226 226 224 223 219 219 223 226 231 232 232 232 235 239 241 242 243 246 249 251 256 261 265 268 272 277 281 285 289 291 292 293 293
Height
5881 5881 5882 5883 5883 5884 5885 5885 5886 5886 5887 5887 5887 5887 5887 5887 5887 5887 5887 5887 5887 5887 5888 5888 5888 5888 5888 5888 5888 5889 5889 5889 5889 5890 5890 5890 5890 5890 5891 5891 5892 5892 5892
5881 5881 5882 5883 5883 5884 5885 5885 5886 5886 5887 5887 5888 5888 5888 5888 5888 5888 5888 5888 5888 5888 5888 5888 5888 5888 5888 5888 5889 5889 5889 5890 5890 5890 5891 5891 5891 5891 5892 5892 5892 5893 5893
5881 5881 5882 5882 5883 5884 5885 5885 5886 5887 5887 5888 5888 5888 5888 5889 5889 5889 5889 5889 5889 5889 5889 5889 5889 5889 5889 5889 5890 5890 5890 5890 5890 5891 5891 5892 5892 5892 5893 5893 5893 5894 5894
5881 5881 5881 5882 5883 5883 5884 5885 5886 5887 5887 5888 5888 5888 5889 5889 5889 5889 5889 5889 5889 5889 5889 5889 5890 5890 5890 5890 5890 5890 5891 5891 5891 5891 5892 5892 5893 5893 5894 5894 5894 5895 5895
5881 5881 5881 5881 5882 5883 5884 5885 5886 5886 5887 5888 5888 5889 5889 5889 5889 5890 5889 5889 5889 5889 5890 5890 5890 5890 5890 5890 5891 5891 5891 5892 5892 5892 5892 5893 5893 5894 5894 5895 5895 5896 5896
5881 5880 5880 5881 5882 5882 5883 5884 5885 5886 5887 5887 5888 5889 5889 5889 5889 5890 5890 5890 5890 5890 5890 5890 5890 5890 5891 5891 5891 5891 5892 5892 5892 5893 5893 5894 5894 5894 5895 5896 5896 5897 5897
5880 5880 5880 5880 5881 5881 5882 5883 5884 5885 5886 5887 5888 5888 5889 5889 5889 5889 5890 5890 5890 5890 5890 5890 5890 5890 5891 5891 5891 5891 5892 5892 5893 5893 5894 5894 5894 5895 5895 5896 5897 5897 5898
5879 5879 5878 5878 5879 5880 5881 5882 5883 5884 5885 5886 5887 5888 5889 5889 5889 5889 5890 5890 5890 5890 5890 5890 5890 5890 5891 5891 5891 5892 5892 5893 5893 5894 5894 5894 5895 5895 5896 5897 5897 5898 5899
5878 5877 5877 5877 5878 5879 5880 5881 5882 5883 5884 5885 5887 5888 5888 5889 5889 5889 5889 5890 5890 5890 5890 5890 5890 5890 5891 5891 5891 5892 5892 5893 5893 5894 5894 5894 5895 5895 5896 5897 5898 5898 5899
5877 5876 5876 5876 5876 5877 5878 5879 5880 5882 5883 5885 5886 5887 5888 5888 5889 5889 5889 5889 5889 5890 5890 5890 5890 5891 5891 5891 5892 5892 5892 5893 5893 5894 5894 5894 5895 5896 5896 5897 5898 5899 5900
5875 5874 5874 5874 5875 5875 5876 5878 5879 5881 5882 5884 5885 5886 5887 5888 5888 5888 5889 5889 5889 5890 5890 5890 5890 5891 5891 5891 5892 5892 5892 5892 5893 5894 5894 5894 5895 5896 5896 5897 5898 5899 5900
5874 5873 5872 5872 5872 5874 5875 5876 5878 5879 5881 5882 5884 5885 5886 5887 5888 5888 5889 5889 5890 5890 5890 5890 5891 5891 5891 5892 5892 5892 5893 5892 5892 5894 5894 5895 5895 5896 5896 5897 5898 5899 5900
5872 5871 5870 5870 5871 5872 5873 5874 5876 5877 5879 5881 5882 5884 5885 5886 5887 5888 5888 5889 5889 5890 5890 5890 5891 5891 5891 5891 5892 5892 5892 5892 5892 5894 5894 5894 5895 5896 5896 5897 5898 5899 5900
5871 5869 5867 5867 5868 5870 5871 5873 5874 5876 5877 5879 5880 5882 5884 5885 5886 5887 5888 5889 5889 5889 5890 5890 5891 5891 5891 5891 5892 5892 5893 5892 5893 5894 5894 5894 5895 5896 5896 5897 5898 5898 5899
5869 5867 5866 5864 5866 5867 5869 5870 5872 5873 5875 5877 5879 5881 5882 5884 5886 5887 5888 5888 5889 5889 5890 5890 5891 5891 5891 5891 5892 5893 5893 5893 5893 5893 5894 5894 5895 5895 5896 5896 5897 5898 5899
5866 5864 5863 5863 5864 5865 5866 5868 5870 5871 5873 5875 5877 5879 5881 5883 5885 5886 5887 5888 5889 5889 5890 5890 5891 5891 5891 5892 5892 5893 5893 5893 5893 5893 5894 5894 5895 5895 5895 5896 5897 5898 5898
5864 5862 5861 5861 5861 5863 5864 5866 5868 5869 5872 5874 5876 5878 5880 5882 5884 5885 5887 5887 5888 5889 5890 5890 5891 5891 5892 5892 5892 5893 5893 5893 5893 5893 5893 5893 5894 5894 5895 5896 5896 5897 5897
5861 5859 5859 5859 5860 5860 5862 5864 5866 5868 5870 5872 5874 5877 5879 5881 5883 5885 5886 5887 5888 5889 5889 5890 5891 5891 5892 5892 5892 5893 5893 5893 5893 5894 5894 5894 5894 5894 5894 5895 5896 5896 5897
5859 5857 5857 5857 5858 5859 5860 5862 5864 5866 5869 5871 5873 5875 5878 5880 5882 5884 5885 5886 5887 5888 5889 5890 5891 5891 5892 5892 5893 5893 5893 5894 5894 5894 5894 5894 5894 5894 5894 5895 5895 5895 5896
5857 5856 5855 5856 5857 5858 5860 5861 5863 5865 5867 5869 5871 5874 5877 5879 5881 5883 5884 5886 5887 5888 5888 5889 5890 5891 5892 5892 5893 5893 5893 5894 5894 5894 5894 5894 5894 5894 5894 5894 5895 5895 5895
5856 5855 5855 5854 5856 5857 5858 5860 5862 5864 5866 5868 5870 5873 5875 5877 5880 5881 5883 5885 5886 5887 5888 5889 5890 5890 5891 5892 5893 5893 5893 5894 5894 5894 5894 5894 5894 5894 5894 5894 5894 5894 5895
5856 5855 5854 5854 5856 5857 5858 5859 5861 5863 5864 5866 5869 5871 5874 5876 5878 5880 5882 5884 5885 5886 5887 5888 5889 5890 5891 5891 5892 5893 5893 5894 5894 5894 5894 5894 5894 5894 5894 5894 5894 5894 5894
5855 5854 5854 5854 5855 5856 5856 5858 5860 5861 5863 5865 5867 5870 5872 5874 5876 5878 5881 5882 5883 5885 5886 5887 5888 5889 5890 5891 5891 5892 5893 5893 5893 5894 5894 5894 5894 5894 5894 5893 5893 5893 5893
5855 5854 5854 5854 5855 5855 5856 5857 5859 5860 5862 5864 5866 5868 5870 5873 5875 5877 5879 5881 5882 5883 5884 5886 5887 5888 5889 5890 5890 5891 5892 5892 5892 5893 5893 5893 5893 5893 5893 5893 5892 5892 5892
5855 5854 5853 5853 5854 5855 5855 5856 5858 5859 5861 5863 5865 5867 5869 5871 5873 5876 5877 5879 5880 5882 5883 5884 5885 5886 5887 5888 5889 5889 5890 5890 5891 5891 5891 5892 5892 5891 5891 5891 5891 5890 5890
5854 5854 5853 5853 5853 5854 5855 5856 5857 5858 5860 5862 5863 5865 5867 5869 5871 5873 5875 5877 5878 5880 5881 5882 5883 5884 5885 5886 5887 5888 5888 5888 5889 5889 5889 5890 5890 5890 5889 5889 5889 5888 5888